{"data":{"norad_id":61913,"intl_designator":"2024-207B","name":"STARLINK-32434","alt_names":[],"object_type":"PAYLOAD","status":"ACTIVE","operator":null,"country":"US","launch_date":"2024-11-11","launch_site_code":"AFETR","launch_vehicle":null,"mission":null,"orbit_class":"UNKNOWN","rcs_meters":null,"size_class":null,"mass_kg":null,"dimensions":null,"purposes":["comms"],"wikipedia_slug":null,"has_3d_model":false,"image_url":null,"decayed_at":null,"tle_current":{"epoch":"2026-05-25T05:24:34.342272Z","epoch_age_seconds":52661,"freshness":"FRESH","line1":"1 61913U 24207B   26145.22539748  .00022951  00000+0  83965-3 0  9995","line2":"2 61913  43.0031 209.8248 0001106 269.3946  90.6779 15.27630647 86422","mean_motion":15.27630647,"eccentricity":0.0001106,"inclination_deg":43.0031,"raan_deg":209.8248,"arg_perigee_deg":269.3946,"mean_anomaly_deg":90.6779,"bstar":0.00083965,"rev_number":8642,"period_min":94.263623397967,"perigee_km":482.13861448188,"apogee_km":483.65627530109,"semimajor_km":6861.0344448915,"source":"CELESTRAK","updated_at":"2026-05-25T13:38:19.479968Z"}}}